Regional Weather Roundup
Issued by NWS

Home | Current Version | Previous Version | Graphics & Text | Print | Product List | Glossary Off
Versions: 1 2 3 4 5 6 7 8 9 10 11 12 13 14 15 16 17 18 19 20 21 22 23 24 25 26 27 28 29 30 31 32 33 34 35 36 37 38 39 40 41 42 43 44 45 46 47 48 49 50

000
ASUS43 KTOP 040559
RWRKS

WEATHER ROUNDUP FOR KANSAS
NATIONAL WEATHER SERVICE GOODLAND KS
100 AM CDT FRI SEP 04 2015

NOTE:  "FAIR" INDICATES FEW OR NO CLOUDS BELOW 12,000 FEET WITH NO
SIGNIFICANT WEATHER AND/OR OBSTRUCTIONS TO VISIBILITY.

KSZ001>006-013>018-027>032-041>047-040700-
NORTHWEST KANSAS

CITY           SKY/WX    TMP DP  RH WIND       PRES   REMARKS
GOODLAND       MOCLDY    69  55  60 NW6       29.86S
6HR MIN TEMP:  69; 6HR MAX TEMP:  92;

HAYS           CLOUDY    82  57  42 S17G24    29.82S
HILL CITY      MOCLDY    83  59  44 S14G21    29.80S
6HR MIN TEMP:  83; 6HR MAX TEMP:  93;

RUSSELL        MOCLDY    81  59  47 S15       29.82R
6HR MIN TEMP:  81; 6HR MAX TEMP:  93;

$$

KSZ061>065-074>080-084>089-040700-
SOUTHWEST KANSAS

CITY           SKY/WX    TMP DP  RH WIND       PRES   REMARKS
DODGE CITY     CLEAR     76  57  51 S15       29.87S
6HR MIN TEMP:  76; 6HR MAX TEMP:  90;

ELKHART          N/A     75  53  46 S14         N/A
GARDEN CITY    CLEAR     74  57  55 S9        29.85S
6HR MIN TEMP:  74; 6HR MAX TEMP:  90;

GREAT BEND     MOCLDY    81  59  47 S20G25    29.84S
LIBERAL        PTCLDY    79  55  44 S18       29.89S
$$

KSZ066>073-081>083-090>101-040700-
SOUTHEAST KANSAS

CITY           SKY/WX    TMP DP  RH WIND       PRES   REMARKS
CHANUTE        PTCLDY    73  68  84 SE7       29.93S
6HR MIN TEMP:  73; 6HR MAX TEMP:  84;

COFFEYVILLE    MOCLDY    74  69  85 S6        29.93R
6HR MIN TEMP:  74; 6HR MAX TEMP:  84;

HUTCHINSON     CLOUDY    78  63  59 S12       29.88R
6HR MIN TEMP:  78; 6HR MAX TEMP:  91;

NEWTON         CLOUDY    75  63  64 S9        29.92S
PARSONS        PTCLDY    75  68  78 SE5       29.94R
6HR MIN TEMP:  75; 6HR MAX TEMP:  84;

WICHITA INTL   CLOUDY    77  65  66 S13       29.88S
6HR MIN TEMP:  77; 6HR MAX TEMP:  88;

WICHITA JABRA  CLOUDY    77  65  66 S12       29.89S
6HR MIN TEMP:  77; 6HR MAX TEMP:  86;

WICHITA MCCONL MOCLDY    77  64  64 SE10      29.89S
WINFIELD       PTCLDY    76  66  71 SE7       29.91S
6HR MIN TEMP:  76; 6HR MAX TEMP:  86;

$$

KSZ007>012-019>026-033>040-048>060-102>105-040700-
NORTHEAST KANSAS

CITY           SKY/WX    TMP DP  RH WIND       PRES   REMARKS
CONCORDIA      CLOUDY    77  65  66 S15       29.85S
6HR MIN TEMP:  77; 6HR MAX TEMP:  89;

EMPORIA        MOCLDY    74  68  81 S10       29.91S
6HR MIN TEMP:  74; 6HR MAX TEMP:  86;

LAWRENCE       PTCLDY    71  68  90 SE6       29.92R
6HR MIN TEMP:  71; 6HR MAX TEMP:  87;

MANHATTAN      MOCLDY    78  68  71 S6        29.87S
6HR MIN TEMP:  77; 6HR MAX TEMP:  91;

OLATHE IND     PTCLDY    73  68  84 SE6       29.94S
6HR MIN TEMP:  72; 6HR MAX TEMP:  84;

OLATHE EXE     PTCLDY    72  68  87 S5        29.93S
6HR MIN TEMP:  72; 6HR MAX TEMP:  83;

SALINA         CLOUDY    80  65  59 S13       29.85R
6HR MIN TEMP:  80; 6HR MAX TEMP:  91;

TOPEKA BILLARD CLEAR     76  68  76 SE8       29.90S
6HR MIN TEMP:  75; 6HR MAX TEMP:  86;

TOPEKA FORBES  FAIR      74  68  81 SE6       29.91S
6HR MIN TEMP:  74; 6HR MAX TEMP:  86;

$$



USA.gov is the U.S. government's official web portal to all federal, state and local government web resources and services.